Wind_Speed
18 16 15 16 17 17 18 18 18 18 17 18 18 18 18 18 18 17 17 17 17 18 18 18 19 19 20 20 20 21 22 22 23 24 24 24 24 24 24 24 24 23 23 23 22 22 22 22 23 24 24 24 25 26 27 27 27 28 28 28 28 27 26
17 17 17 18 18 19 19 19 19 19 19 19 19 19 19 18 18 18 17 17 17 18 18 19 19 20 20 21 21 22 22 23 24 25 25 25 25 26 26 26 25 25 25 25 24 24 24 23 23 24 25 25 26 27 27 28 29 29 29 30 30 29 28
20 20 20 20 20 20 20 20 20 20 20 20 20 20 19 19 19 19 19 18 18 18 18 19 20 20 21 22 22 23 23 24 25 25 25 26 26 26 27 27 27 27 27 26 26 26 25 25 24 24 25 26 27 28 29 28 29 29 30 31 32 31 31
20 20 21 21 21 21 21 20 20 20 21 21 21 21 20 20 19 19 20 20 19 19 19 20 20 21 22 22 23 24 24 25 25 25 26 26 27 27 27 28 27 28 28 28 28 28 27 27 27 26 26 27 27 28 30 30 29 30 30 31 33 32 31
21 21 22 22 22 22 21 21 21 20 21 21 21 21 20 20 20 20 20 20 20 20 20 20 21 22 22 23 24 24 25 25 26 26 26 27 27 27 27 28 28 28 29 29 29 29 29 29 29 28 28 29 28 28 31 31 31 31 31 32 33 33 32
22 22 23 23 23 22 22 21 21 20 21 21 21 21 20 21 21 21 21 21 21 21 21 21 22 22 22 23 24 25 25 26 26 27 27 28 28 28 28 28 28 29 29 30 29 30 30 30 30 30 30 30 30 30 31 32 32 32 33 32 33 34 33
23 23 24 24 23 23 22 22 21 21 21 21 21 21 21 21 21 22 22 22 22 22 22 23 23 23 24 24 24 25 25 26 27 27 28 29 29 30 30 29 29 30 30 30 30 30 31 32 32 32 32 32 32 32 31 32 33 33 34 34 34 34 34
24 25 25 24 24 24 23 22 22 22 21 21 21 21 21 22 22 23 23 23 23 24 24 25 25 26 26 26 26 26 27 27 27 28 29 29 30 30 31 31 31 31 32 32 32 32 33 34 34 34 34 34 33 33 33 33 33 34 35 35 34 35 34
25 25 25 25 25 24 24 23 23 22 21 21 21 21 22 23 24 24 25 25 25 26 26 27 27 28 28 28 29 29 29 29 29 29 30 30 30 31 31 32 33 33 33 34 34 34 35 36 36 36 36 36 35 34 34 33 33 34 35 35 35 36 35
25 25 26 26 26 25 25 24 23 23 22 21 21 22 23 24 25 26 26 27 27 28 28 29 29 29 30 30 30 31 31 31 31 31 31 31 31 32 32 33 34 34 34 35 35 35 36 36 37 37 36 37 37 35 34 34 32 34 36 35 35 36 36
25 26 26 26 26 26 25 24 24 23 22 22 22 23 24 25 26 27 28 28 28 29 29 30 30 31 31 31 32 32 32 33 33 33 33 33 33 33 33 34 35 35 35 35 35 35 36 36 36 36 36 36 37 36 35 35 32 33 36 36 35 36 37
26 26 27 27 27 26 26 25 24 23 23 23 23 24 25 26 27 28 28 29 29 29 30 30 31 31 32 32 33 33 34 34 34 34 34 35 35 35 35 35 36 36 36 36 36 36 36 36 35 35 36 36 37 36 36 36 34 33 36 37 35 36 37
27 27 28 28 28 28 27 25 25 24 24 24 24 25 27 27 28 28 29 29 29 30 30 30 31 32 33 33 34 34 34 35 35 35 35 36 36 36 37 37 37 37 37 37 37 37 37 37 37 36 36 36 38 38 38 38 36 33 36 38 36 36 38
28 29 29 29 29 29 27 26 25 25 25 25 26 27 28 29 29 29 29 29 29 30 31 32 32 33 34 34 34 35 35 35 35 36 36 36 36 37 37 37 38 38 38 38 38 38 39 39 39 39 38 39 39 40 40 41 39 35 35 37 38 37 38
29 29 29 29 29 28 27 26 26 26 26 27 27 29 29 30 30 30 30 30 31 32 33 33 34 34 35 35 35 36 36 36 36 36 37 36 37 37 37 37 38 38 39 39 40 40 40 41 42 41 41 41 41 42 42 42 42 39 35 36 38 38 38
28 28 28 28 27 27 26 26 27 27 28 28 29 30 30 30 31 31 31 32 33 34 34 34 35 36 36 36 36 37 37 37 37 37 37 37 37 37 37 38 38 38 39 40 41 42 42 43 43 43 43 43 43 43 43 42 43 42 38 36 38 39 39
27 27 27 26 26 26 27 27 28 28 29 29 30 30 31 31 32 32 33 34 35 36 36 36 36 37 37 37 37 37 37 37 37 37 37 38 38 38 39 39 40 40 41 41 42 43 44 44 45 45 44 44 44 43 43 44 43 43 41 38 38 39 40
27 27 27 26 26 27 28 28 29 29 30 30 30 31 31 32 33 34 34 36 37 38 39 38 38 38 38 38 37 37 37 37 37 37 37 38 39 39 40 41 41 42 43 43 44 44 45 46 46 46 45 45 45 44 44 44 44 45 44 42 40 40 41
28 27 27 27 28 29 29 29 30 30 31 31 31 31 32 34 35 35 36 37 39 40 41 40 39 39 38 38 38 38 38 38 38 38 38 39 40 41 42 43 43 44 44 45 45 46 46 47 47 47 47 47 47 46 46 46 46 47 46 45 43 42 42
25 25 26 26 27 28 29 30 30 30 31 31 31 32 34 35 36 36 38 39 41 42 43 42 40 40 39 39 38 38 38 39 39 40 41 41 42 43 43 45 45 46 46 46 46 47 47 47 48 48 49 49 48 48 48 48 48 48 48 47 46 45 44
24 24 24 25 25 27 28 29 30 31 31 32 32 33 35 36 36 38 39 41 43 44 44 42 41 40 40 39 39 39 40 40 41 42 43 43 44 44 44 45 45 46 46 46 46 47 47 47 47 48 49 49 49 49 49 49 49 49 49 48 47 46 46
24 25 25 25 25 26 27 29 30 31 32 32 33 34 36 37 38 40 41 43 44 45 44 42 41 41 40 41 41 41 42 42 42 43 43 44 44 45 45 45 45 46 46 47 47 48 48 48 48 48 49 49 50 50 50 50 49 49 49 49 48 48 47
24 25 25 26 26 27 28 29 30 31 32 33 34 36 37 39 40 41 43 45 45 45 42 41 41 41 42 42 42 43 43 43 43 43 44 44 45 45 46 46 46 47 47 48 48 49 49 49 50 50 51 51 51 51 51 51 51 51 50 50 49 48 48
25 25 25 26 27 28 29 30 31 32 33 34 36 37 39 40 42 43 44 46 45 43 41 41 42 42 42 43 43 43 43 43 43 44 44 45 45 46 46 47 47 48 48 49 50 50 51 51 51 52 52 53 53 52 52 52 53 52 52 51 50 49 48
26 26 26 27 28 29 29 30 31 33 34 36 37 39 40 42 43 44 45 45 42 41 41 42 42 43 43 43 43 43 43 43 44 44 44 45 45 46 46 47 47 48 49 50 51 52 52 53 53 54 54 55 55 54 54 54 54 54 53 53 52 51 49
28 28 27 28 28 29 30 31 32 34 35 37 38 39 41 42 44 44 43 42 40 41 41 42 42 42 42 42 42 42 43 43 44 44 44 45 45 46 47 47 48 49 50 51 52 52 54 54 55 56 56 56 56 56 55 55 55 54 54 54 53 53 51
29 29 28 28 28 29 30 31 33 34 35 37 37 39 41 42 43 42 40 40 40 41 41 41 41 41 41 41 42 42 42 43 43 43 44 45 45 46 47 48 49 49 50 50 51 52 53 54 55 56 56 57 57 57 57 56 56 56 55 54 54 53 53
28 27 27 28 29 30 31 32 33 34 35 36 37 38 40 40 39 38 38 39 40 40 40 40 40 40 40 40 41 41 41 42 42 43 44 44 45 46 47 48 48 49 49 50 51 51 52 53 53 54 55 55 56 57 58 58 57 57 56 55 54 53 53
27 27 28 30 31 32 32 33 34 34 34 36 37 38 38 37 36 37 38 39 39 39 38 38 38 39 39 39 40 40 41 41 42 42 43 43 44 45 45 46 47 48 49 50 51 51 52 52 52 53 53 53 54 55 55 56 57 57 56 55 54 52 52
29 30 31 32 33 33 33 33 34 35 35 36 36 35 34 34 35 36 37 37 37 37 37 37 37 38 38 38 39 39 40 40 41 41 42 42 43 43 44 44 45 46 48 49 50 50 51 51 51 51 50 50 50 50 51 53 54 55 54 54 53 52 51
32 34 35 35 34 33 33 34 35 35 34 33 32 31 32 33 34 35 35 35 35 35 36 36 37 37 37 37 38 38 39 39 40 40 41 41 42 42 43 44 44 46 47 48 48 48 49 49 48 47 45 43 42 42 42 44 46 49 50 51 51 50 49
32 33 34 34 34 34 35 35 33 31 29 28 29 30 31 32 33 33 34 34 34 34 35 35 36 36 36 36 37 37 38 38 39 39 40 41 41 42 42 43 43 44 45 46 46 47 46 45 43 40 37 34 31 30 29 31 34 38 42 44 45 46 46
28 29 31 32 33 33 33 30 27 26 26 27 28 29 30 31 31 32 32 32 33 33 34 34 34 34 35 35 36 36 36 37 37 38 38 39 39 40 41 41 42 42 43 43 44 44 42 39 35 31 28 25 23 23 24 25 27 28 29 31 32 36 40
27 29 30 30 29 27 25 23 23 24 25 26 27 28 29 29 30 30 30 31 32 32 33 33 33 33 34 34 35 35 36 36 36 37 37 38 38 39 39 40 41 41 42 42 42 40 38 33 28 24 23 21 20 19 20 21 21 21 22 23 24 26 30
25 25 24 23 22 21 21 21 22 23 24 26 27 27 28 28 28 29 29 30 31 31 31 31 32 32 33 34 34 34 35 35 35 35 35 36 36 36 37 37 38 39 40 40 40 39 35 29 24 21 22 22 20 18 18 18 19 20 21 21 23 23 22
20 19 19 19 20 20 20 21 22 23 24 25 26 26 27 27 27 28 29 30 30 30 30 31 31 32 32 33 33 33 33 33 34 34 33 33 33 33 33 34 35 36 36 36 37 37 35 29 23 21 22 22 20 18 18 18 18 19 19 19 20 21 21
18 19 19 20 20 20 20 21 22 23 24 25 25 25 25 26 26 28 28 29 29 29 29 30 31 31 31 32 32 32 32 32 32 31 31 31 30 30 31 31 32 32 33 33 35 35 34 30 25 22 22 22 21 20 20 19 18 18 18 17 17 17 19
Wind_Direction
243 242 251 265 271 275 276 278 283 287 291 295 298 301 304 307 308 309 309 307 305 303 302 302 302 301 299 296 294 292 293 294 295 297 299 302 303 303 304 305 305 306 307 308 309 309 311 313 315 315 316 318 319 319 319 320 320 321 321 317 313 311 311
243 254 265 270 271 273 274 276 280 284 288 291 294 297 300 303 305 306 307 306 305 303 302 301 301 300 300 298 297 296 296 296 296 297 298 300 301 302 302 303 303 302 303 303 304 305 306 307 309 311 312 314 315 317 317 318 319 320 319 316 315 316 317
255 261 265 267 269 271 272 274 278 282 285 288 290 292 295 298 301 303 304 304 304 304 302 301 300 300 299 299 298 298 297 297 297 298 298 299 299 300 300 300 301 300 300 300 300 301 302 302 304 306 308 309 312 314 314 315 316 316 316 315 315 317 318
258 260 263 265 267 269 270 273 277 281 284 286 288 290 292 295 298 301 303 304 304 304 304 302 301 300 299 299 299 299 299 299 299 299 299 299 299 299 299 299 299 299 299 298 298 298 299 299 300 302 303 305 308 310 310 311 313 313 314 314 313 314 314
258 261 263 264 266 267 269 272 275 279 282 284 286 288 290 292 295 298 300 301 303 304 304 303 302 301 299 298 298 298 298 299 299 299 299 300 300 299 299 299 299 299 298 298 298 298 298 298 299 300 301 301 304 304 305 307 309 310 311 311 310 311 311
260 261 262 264 265 266 267 270 273 277 280 283 284 286 288 289 292 294 296 298 300 301 303 303 303 302 301 299 298 298 298 298 298 299 299 300 300 300 300 300 300 299 299 299 299 298 298 298 298 299 299 300 301 301 302 303 305 306 307 307 308 308 309
260 261 263 264 265 265 266 268 271 275 279 281 282 283 285 287 289 291 292 295 297 299 301 302 302 302 301 300 300 300 300 300 300 300 300 300 300 301 300 300 300 300 299 299 299 299 299 299 299 299 299 298 299 300 299 299 300 302 302 303 304 304 305
259 261 263 264 264 264 265 267 271 275 277 278 280 282 284 286 288 289 290 292 294 296 298 299 300 301 301 300 300 301 301 301 302 301 301 301 301 300 300 299 299 298 298 298 298 298 298 298 298 298 298 297 297 297 297 297 297 298 298 300 301 301 302
259 261 262 262 262 262 263 267 270 273 274 276 278 281 283 285 287 288 289 290 292 294 296 297 299 299 300 300 300 300 300 300 300 300 301 301 301 300 300 299 298 297 296 295 296 296 295 295 295 295 296 295 295 295 294 294 294 294 295 296 297 298 299
259 261 261 261 261 262 265 267 269 271 273 276 279 282 284 286 288 289 290 290 292 294 295 297 297 297 297 298 298 298 299 299 299 298 298 299 299 299 300 299 298 297 296 295 295 294 293 293 293 294 294 294 293 293 292 291 292 291 290 292 293 294 296
259 259 260 262 263 265 266 268 270 272 274 277 280 284 286 288 288 289 291 293 295 296 297 297 297 297 297 297 297 297 297 298 298 298 297 297 297 296 297 297 296 296 296 295 295 294 293 292 292 292 293 292 292 292 291 289 288 287 287 288 290 291 292
256 258 260 262 264 266 267 268 270 273 275 279 282 285 287 288 289 291 294 297 298 299 299 298 298 298 298 298 297 297 297 297 297 297 296 296 296 295 294 294 293 293 294 294 294 294 293 292 292 291 291 291 291 290 289 288 288 288 287 287 288 288 289
255 257 259 261 264 266 267 268 271 273 276 280 283 286 288 290 292 296 298 300 300 301 301 300 298 298 297 297 297 297 297 296 296 296 295 295 294 294 293 292 292 291 292 292 293 293 292 291 291 290 290 289 289 289 288 288 288 289 288 287 287 287 287
254 256 258 260 262 264 266 268 271 274 278 281 285 288 290 293 296 300 301 301 302 302 302 301 299 298 298 297 297 297 297 296 296 295 294 294 293 293 292 291 291 290 290 290 290 290 290 290 289 289 288 288 287 287 287 287 287 287 286 287 288 287 286
252 253 255 257 259 262 265 267 271 275 279 283 286 288 291 294 298 301 301 302 304 304 303 302 301 300 300 300 299 298 298 297 297 295 294 293 293 292 291 290 290 289 289 288 288 288 287 287 287 287 287 286 286 286 286 287 287 286 284 284 286 286 286
250 252 254 256 259 262 265 268 272 276 279 282 284 287 290 295 299 300 300 302 305 306 305 304 303 302 301 300 299 299 298 297 297 295 294 293 293 292 292 291 290 289 288 288 287 287 286 285 285 285 285 285 285 285 285 285 286 286 285 283 283 284 284
250 252 255 257 260 263 266 269 272 275 278 280 283 286 291 295 297 298 299 302 304 306 307 306 304 303 301 300 299 298 297 296 295 294 293 293 293 293 292 292 291 290 289 288 287 286 285 284 284 283 283 283 282 282 283 282 283 283 283 282 281 281 282
251 254 256 259 263 265 268 270 272 274 276 279 282 286 290 293 295 296 298 301 303 305 307 307 305 303 301 300 299 298 297 295 295 294 293 294 293 293 293 292 291 290 289 288 287 285 284 284 283 282 282 281 280 280 280 280 280 280 281 281 280 280 281
255 258 260 262 264 266 268 270 271 273 275 278 282 285 289 291 293 295 298 300 302 304 306 306 304 302 301 300 299 298 297 296 296 296 296 295 295 295 294 293 291 290 289 287 286 285 284 283 282 281 280 279 279 279 278 278 278 278 278 279 279 279 279
257 261 262 264 265 266 268 269 271 273 275 277 280 284 287 290 292 295 297 299 302 304 305 304 302 301 301 300 300 299 298 298 298 298 298 297 297 296 294 293 292 291 289 287 285 284 283 282 281 280 280 279 278 278 277 277 277 277 277 277 276 276 276
260 262 263 265 266 267 268 270 271 272 274 276 279 282 285 288 291 294 296 299 301 303 304 303 301 301 301 301 300 300 299 299 299 299 299 298 298 296 295 293 292 291 290 288 287 285 283 282 281 280 279 279 278 277 277 276 276 276 276 275 274 274 273
261 262 263 265 266 268 270 270 271 271 273 276 278 281 284 287 290 293 295 298 300 302 302 301 301 302 302 302 301 301 301 301 301 300 300 299 298 297 296 294 293 292 290 289 288 287 285 284 282 280 279 278 277 277 276 276 275 274 274 273 273 272 272
260 262 264 265 267 268 269 269 270 271 273 275 277 280 283 286 290 292 295 298 300 301 301 301 301 302 302 302 301 301 301 301 301 301 300 299 298 297 297 296 295 294 293 291 290 288 287 286 284 282 280 278 277 276 275 274 273 272 272 271 271 270 270
260 263 266 267 268 268 268 269 270 271 273 275 277 280 283 287 290 292 295 298 300 300 300 301 302 302 302 302 301 301 302 301 301 301 300 300 299 299 298 298 297 296 295 294 293 291 290 288 286 284 282 280 278 276 274 272 270 270 269 269 269 269 268
263 266 268 268 268 268 269 269 270 271 273 275 277 280 284 287 290 292 295 297 298 299 300 301 302 302 301 301 302 302 302 302 302 302 302 302 302 301 301 301 300 299 298 297 295 294 292 290 288 286 283 281 279 277 275 272 270 268 267 266 266 266 266
268 268 268 268 268 269 269 269 270 271 273 275 278 282 284 287 290 293 295 296 297 299 301 301 301 301 301 301 302 303 303 304 304 304 304 304 304 304 303 303 302 301 299 298 296 294 293 290 288 286 284 282 280 278 275 273 271 269 266 264 263 263 263
268 268 267 267 267 268 269 269 270 271 273 276 279 282 284 288 291 293 294 296 298 299 300 299 299 300 301 303 304 304 305 305 306 306 306 306 306 306 305 305 304 303 301 300 298 296 294 292 289 287 284 282 279 277 275 272 270 268 267 265 263 262 261
267 267 267 268 267 267 268 269 270 271 273 276 279 282 286 290 291 292 295 297 298 298 298 298 299 301 303 304 305 306 307 308 308 308 308 308 308 307 307 307 306 305 304 303 301 300 297 295 293 289 286 283 279 276 273 271 269 267 266 265 263 262 261
268 271 272 271 268 266 266 267 269 271 273 276 280 285 288 290 291 294 296 297 297 297 298 299 301 304 305 306 307 308 309 309 309 309 309 309 309 309 309 309 309 308 308 307 306 304 302 300 297 293 289 285 280 276 273 270 268 266 264 264 263 262 261
272 274 274 271 267 265 266 267 268 271 274 279 283 286 288 290 293 295 295 295 295 297 299 302 304 306 307 308 309 309 309 309 309 309 309 310 311 311 311 311 311 311 311 311 310 309 307 304 301 296 292 287 283 278 274 271 268 266 264 262 261 261 260
274 273 270 268 266 264 265 266 269 272 277 280 283 286 289 292 293 293 293 294 297 299 302 304 305 306 307 308 309 309 309 309 310 311 312 313 314 314 314 315 315 315 315 315 315 314 312 309 305 301 297 293 288 283 278 274 270 266 263 261 260 259 259
275 273 269 267 265 263 264 266 270 274 278 281 285 288 290 290 291 292 294 296 299 302 304 305 305 307 308 309 310 310 311 312 313 314 315 316 316 317 317 318 318 319 320 321 321 321 318 315 311 308 305 301 297 292 286 280 275 270 266 263 261 259 257
277 274 269 266 265 264 265 269 273 277 280 284 286 288 288 289 291 293 296 298 301 302 304 305 306 308 309 310 311 312 313 314 315 316 316 317 317 318 319 320 321 324 326 328 328 327 323 319 316 315 314 310 303 296 292 289 287 281 274 268 265 261 257
275 271 267 265 265 267 269 273 278 281 283 285 285 286 288 290 293 295 297 299 301 302 304 305 307 309 310 312 313 314 315 316 316 317 317 319 320 321 323 325 327 330 332 333 335 334 330 324 319 319 321 319 311 303 300 299 297 290 279 268 264 263 261
267 266 266 267 270 273 277 280 282 283 283 284 285 288 290 292 294 296 298 300 301 303 305 308 310 311 313 315 316 317 317 317 318 319 320 322 324 325 328 330 332 334 336 338 341 342 337 330 320 316 321 324 321 315 311 307 303 299 290 274 263 261 263
267 270 273 276 280 282 283 283 283 282 283 285 287 289 290 292 294 297 299 301 303 306 308 311 313 315 316 317 318 318 318 319 320 322 324 325 327 329 331 333 335 337 339 343 347 349 345 337 324 314 315 321 325 324 320 313 305 302 299 286 270 264 263
274 277 279 281 283 283 281 281 282 283 285 287 288 289 291 293 295 298 300 303 306 309 312 314 315 317 318 318 318 318 320 322 324 325 326 328 330 332 334 335 336 339 342 347 352 354 353 347 335 320 314 315 318 321 323 321 314 305 300 293 281 269 264
Height
5817 5816 5816 5818 5819 5819 5819 5820 5820 5820 5820 5820 5820 5820 5820 5820 5820 5819 5819 5818 5817 5817 5816 5815 5815 5814 5813 5813 5812 5811 5811 5810 5809 5808 5807 5805 5804 5803 5802 5801 5800 5799 5797 5796 5795 5793 5792 5791 5789 5788 5787 5786 5785 5784 5783 5782 5781 5781 5779 5778 5776 5775 5773
5814 5813 5814 5815 5816 5817 5817 5818 5818 5818 5819 5819 5819 5819 5819 5818 5818 5818 5817 5817 5816 5815 5814 5814 5813 5812 5811 5811 5810 5809 5808 5807 5807 5806 5804 5803 5802 5801 5799 5798 5797 5796 5795 5794 5793 5791 5790 5789 5788 5787 5785 5784 5783 5782 5780 5779 5778 5778 5776 5775 5774 5773 5771
5811 5811 5813 5814 5815 5815 5816 5816 5816 5817 5817 5817 5817 5817 5817 5817 5816 5816 5815 5815 5814 5813 5813 5812 5811 5810 5809 5808 5808 5807 5806 5805 5804 5803 5802 5801 5800 5798 5797 5796 5795 5793 5792 5791 5790 5789 5788 5787 5786 5785 5783 5782 5781 5779 5778 5777 5776 5775 5774 5772 5771 5770 5768
5810 5811 5812 5813 5814 5814 5814 5815 5815 5815 5815 5815 5816 5815 5815 5815 5814 5814 5813 5813 5812 5811 5810 5810 5809 5808 5807 5806 5805 5804 5803 5802 5801 5800 5799 5798 5797 5796 5794 5793 5792 5791 5789 5788 5787 5786 5785 5784 5783 5783 5781 5780 5779 5777 5775 5774 5774 5772 5771 5769 5768 5767 5766
5810 5811 5811 5812 5813 5813 5813 5813 5814 5814 5814 5814 5814 5814 5813 5813 5812 5812 5811 5811 5810 5809 5808 5807 5806 5805 5805 5804 5803 5802 5801 5799 5798 5797 5796 5795 5794 5793 5792 5790 5789 5788 5787 5785 5785 5783 5782 5781 5780 5780 5779 5777 5777 5776 5773 5772 5771 5769 5768 5767 5765 5764 5763
5809 5810 5810 5811 5811 5812 5812 5812 5812 5812 5813 5813 5812 5812 5811 5811 5810 5810 5809 5809 5808 5807 5806 5805 5804 5803 5802 5801 5800 5799 5798 5797 5796 5794 5793 5792 5791 5789 5789 5787 5786 5785 5784 5782 5782 5781 5779 5778 5777 5777 5776 5775 5774 5773 5771 5769 5767 5766 5765 5764 5763 5761 5760
5808 5808 5809 5809 5810 5810 5810 5810 5811 5811 5811 5811 5810 5810 5809 5809 5808 5808 5807 5806 5805 5804 5803 5802 5801 5800 5799 5798 5797 5796 5795 5794 5793 5791 5790 5789 5787 5786 5785 5784 5783 5782 5780 5779 5778 5777 5776 5775 5774 5773 5772 5772 5771 5770 5769 5767 5765 5763 5762 5761 5760 5758 5757
5806 5807 5807 5808 5808 5808 5808 5809 5809 5809 5809 5809 5808 5808 5807 5807 5806 5805 5805 5804 5803 5802 5801 5800 5799 5798 5797 5795 5794 5793 5792 5791 5789 5788 5787 5785 5784 5783 5781 5780 5779 5778 5777 5775 5775 5774 5773 5771 5771 5770 5768 5768 5767 5767 5765 5764 5763 5760 5758 5757 5756 5755 5754
5804 5804 5805 5805 5806 5806 5806 5807 5807 5807 5807 5807 5806 5806 5805 5805 5804 5803 5802 5801 5800 5799 5798 5797 5796 5795 5794 5792 5791 5790 5789 5787 5786 5785 5783 5782 5780 5779 5778 5776 5775 5774 5773 5772 5771 5770 5769 5767 5766 5765 5764 5763 5763 5763 5762 5761 5760 5757 5755 5753 5752 5751 5750
5802 5802 5803 5803 5803 5804 5804 5804 5805 5805 5805 5804 5804 5803 5803 5802 5801 5800 5799 5798 5797 5796 5795 5794 5793 5792 5791 5789 5788 5787 5786 5784 5783 5781 5780 5779 5777 5776 5774 5772 5771 5770 5769 5768 5767 5766 5765 5763 5762 5761 5760 5759 5758 5758 5757 5756 5756 5754 5750 5750 5748 5746 5745
5799 5800 5800 5801 5801 5802 5802 5802 5802 5802 5802 5802 5801 5801 5800 5799 5799 5798 5797 5796 5795 5793 5792 5791 5790 5789 5788 5786 5785 5784 5783 5781 5780 5778 5777 5775 5774 5772 5771 5769 5767 5766 5765 5764 5763 5762 5761 5759 5758 5757 5756 5755 5753 5753 5752 5751 5752 5750 5747 5746 5745 5743 5741
5797 5798 5798 5799 5799 5800 5800 5800 5800 5800 5799 5799 5798 5798 5797 5796 5796 5795 5794 5793 5792 5791 5790 5788 5787 5786 5784 5783 5782 5780 5779 5777 5776 5774 5773 5771 5770 5768 5767 5766 5764 5762 5761 5760 5759 5758 5756 5755 5754 5753 5752 5750 5749 5748 5747 5745 5746 5747 5743 5741 5741 5739 5737
5795 5795 5796 5796 5797 5797 5797 5797 5797 5797 5797 5796 5796 5795 5794 5793 5793 5792 5791 5790 5789 5788 5787 5785 5784 5782 5781 5780 5778 5777 5775 5774 5772 5771 5769 5768 5766 5764 5763 5761 5760 5758 5757 5756 5755 5753 5752 5750 5750 5749 5748 5746 5744 5743 5741 5740 5741 5743 5740 5737 5737 5736 5733
5793 5793 5793 5794 5794 5794 5795 5795 5795 5794 5794 5793 5793 5792 5791 5790 5789 5789 5788 5787 5786 5785 5783 5782 5780 5779 5777 5776 5774 5773 5771 5770 5768 5767 5765 5763 5762 5760 5759 5757 5756 5754 5753 5752 5750 5749 5748 5746 5744 5744 5743 5742 5740 5738 5736 5734 5735 5738 5737 5733 5731 5731 5729
5790 5790 5791 5791 5791 5791 5792 5792 5792 5791 5791 5790 5790 5789 5788 5787 5787 5786 5785 5784 5783 5781 5780 5778 5777 5775 5773 5772 5770 5769 5767 5766 5764 5762 5760 5759 5757 5756 5754 5752 5751 5750 5748 5747 5745 5744 5743 5742 5740 5739 5738 5737 5735 5734 5732 5730 5728 5730 5732 5730 5727 5726 5725
5788 5788 5788 5789 5789 5788 5788 5789 5788 5788 5788 5787 5787 5786 5785 5784 5784 5783 5782 5780 5779 5778 5776 5775 5773 5772 5770 5768 5766 5765 5763 5761 5760 5758 5756 5754 5752 5751 5749 5748 5746 5745 5744 5742 5741 5739 5738 5736 5735 5734 5733 5731 5730 5729 5727 5726 5723 5722 5725 5726 5723 5720 5720
5785 5785 5786 5786 5786 5786 5785 5785 5785 5785 5785 5784 5784 5783 5782 5781 5780 5779 5778 5777 5776 5774 5773 5771 5770 5768 5766 5764 5763 5761 5759 5757 5755 5753 5752 5750 5748 5746 5744 5743 5741 5740 5739 5737 5736 5734 5732 5731 5729 5728 5727 5726 5724 5724 5722 5720 5718 5716 5717 5719 5718 5715 5714
5782 5783 5783 5783 5783 5783 5783 5783 5782 5782 5782 5781 5781 5780 5779 5778 5777 5776 5775 5774 5773 5771 5769 5768 5766 5764 5762 5760 5758 5756 5755 5753 5751 5749 5747 5745 5743 5741 5739 5738 5736 5735 5734 5732 5730 5729 5727 5725 5724 5722 5721 5720 5718 5717 5716 5715 5713 5711 5710 5711 5712 5710 5708
5780 5780 5780 5780 5780 5780 5780 5780 5779 5779 5779 5778 5778 5777 5776 5775 5774 5773 5772 5771 5769 5768 5766 5764 5762 5760 5758 5756 5754 5752 5750 5748 5746 5744 5742 5740 5738 5737 5734 5732 5731 5729 5728 5727 5725 5723 5721 5720 5718 5716 5715 5714 5712 5711 5710 5709 5707 5705 5704 5704 5705 5704 5703
5777 5777 5777 5777 5777 5777 5777 5776 5776 5776 5775 5775 5774 5773 5772 5772 5771 5770 5769 5767 5766 5764 5762 5760 5758 5756 5754 5752 5749 5747 5745 5743 5741 5739 5737 5735 5733 5731 5729 5727 5725 5723 5722 5721 5719 5717 5715 5714 5712 5710 5708 5707 5706 5704 5703 5702 5701 5699 5698 5698 5698 5698 5697
5773 5774 5774 5774 5774 5773 5773 5773 5773 5773 5772 5771 5771 5770 5769 5768 5767 5766 5765 5764 5762 5760 5758 5755 5753 5751 5749 5747 5745 5743 5741 5739 5736 5734 5732 5729 5727 5725 5723 5721 5719 5717 5715 5714 5712 5711 5709 5707 5706 5704 5702 5700 5699 5698 5697 5695 5694 5693 5692 5691 5691 5691 5691
5770 5770 5770 5770 5770 5770 5770 5770 5769 5769 5768 5768 5767 5766 5766 5765 5764 5763 5761 5760 5758 5756 5753 5751 5749 5747 5744 5742 5740 5738 5736 5733 5731 5729 5726 5724 5722 5719 5717 5715 5713 5711 5709 5707 5705 5703 5701 5700 5699 5697 5695 5693 5692 5690 5689 5688 5687 5686 5685 5684 5684 5684 5684
5767 5767 5767 5767 5767 5766 5766 5766 5766 5765 5765 5764 5764 5763 5762 5761 5760 5759 5757 5755 5753 5751 5749 5747 5745 5742 5740 5738 5736 5733 5731 5728 5726 5723 5721 5719 5716 5714 5711 5709 5707 5704 5702 5700 5697 5695 5694 5692 5690 5689 5687 5685 5684 5683 5682 5680 5679 5678 5677 5677 5677 5676 5676
5764 5764 5764 5764 5763 5763 5763 5762 5762 5762 5761 5761 5760 5759 5758 5757 5756 5754 5753 5751 5749 5746 5744 5742 5740 5738 5736 5733 5731 5728 5726 5723 5721 5718 5716 5713 5710 5708 5705 5703 5700 5697 5695 5692 5690 5687 5685 5683 5682 5680 5678 5677 5675 5674 5673 5672 5671 5670 5669 5669 5669 5669 5669
5761 5761 5760 5760 5760 5759 5759 5759 5758 5758 5757 5757 5756 5755 5754 5753 5752 5750 5748 5746 5744 5742 5740 5738 5735 5733 5731 5728 5726 5723 5721 5718 5715 5713 5710 5707 5704 5702 5699 5696 5693 5691 5688 5685 5682 5679 5677 5675 5673 5670 5669 5668 5666 5665 5664 5663 5662 5662 5661 5661 5661 5661 5661
5757 5757 5756 5756 5756 5756 5755 5755 5755 5754 5754 5753 5752 5751 5750 5749 5747 5746 5744 5742 5740 5737 5735 5733 5731 5729 5726 5724 5721 5718 5716 5713 5710 5707 5705 5702 5699 5696 5693 5690 5687 5684 5681 5678 5675 5672 5669 5666 5664 5661 5659 5658 5657 5655 5654 5653 5653 5652 5652 5652 5653 5653 5653
5753 5753 5752 5752 5752 5752 5751 5751 5751 5750 5749 5749 5748 5747 5746 5745 5743 5741 5740 5737 5735 5733 5731 5729 5727 5724 5722 5719 5716 5713 5711 5708 5705 5702 5699 5696 5693 5690 5687 5683 5680 5677 5674 5670 5667 5664 5661 5658 5655 5652 5650 5648 5647 5645 5644 5643 5643 5643 5643 5643 5644 5644 5644
5749 5749 5749 5748 5748 5748 5748 5747 5747 5746 5745 5745 5744 5743 5742 5740 5739 5737 5735 5733 5731 5729 5727 5725 5722 5719 5717 5714 5712 5709 5706 5703 5700 5697 5694 5691 5687 5684 5681 5677 5674 5670 5667 5663 5660 5656 5653 5649 5646 5643 5640 5638 5636 5635 5634 5633 5633 5633 5633 5634 5635 5636 5636
5745 5745 5745 5745 5744 5744 5743 5743 5742 5742 5741 5740 5740 5739 5737 5736 5734 5733 5731 5729 5727 5725 5723 5720 5718 5715 5712 5710 5707 5704 5701 5698 5695 5692 5689 5686 5682 5679 5675 5672 5668 5664 5660 5656 5652 5648 5644 5641 5637 5634 5630 5628 5625 5624 5623 5623 5622 5623 5624 5625 5626 5627 5628
5741 5741 5740 5740 5739 5739 5739 5739 5738 5737 5737 5736 5736 5735 5733 5732 5730 5729 5727 5725 5723 5721 5718 5716 5713 5711 5708 5705 5703 5700 5697 5694 5691 5688 5684 5681 5678 5674 5671 5667 5663 5659 5654 5650 5645 5641 5636 5632 5628 5624 5621 5618 5615 5614 5613 5613 5612 5613 5614 5616 5617 5618 5620
5737 5736 5735 5735 5734 5734 5734 5734 5734 5733 5733 5732 5732 5730 5729 5728 5726 5725 5723 5721 5719 5717 5714 5712 5709 5707 5704 5701 5699 5696 5693 5690 5686 5683 5680 5676 5673 5669 5666 5662 5658 5653 5649 5644 5639 5634 5629 5624 5619 5615 5612 5609 5607 5605 5605 5604 5604 5604 5605 5607 5608 5610 5612
5732 5731 5731 5730 5730 5730 5730 5730 5730 5730 5729 5729 5728 5726 5725 5724 5723 5721 5719 5717 5715 5713 5710 5708 5706 5703 5700 5698 5695 5692 5688 5685 5682 5678 5675 5671 5668 5664 5661 5657 5653 5648 5643 5638 5633 5628 5623 5618 5613 5609 5606 5603 5601 5599 5599 5598 5597 5597 5598 5599 5601 5603 5605
5728 5727 5727 5727 5727 5727 5727 5727 5727 5727 5726 5725 5724 5723 5722 5721 5719 5717 5715 5714 5711 5709 5707 5705 5702 5699 5697 5694 5691 5688 5685 5682 5678 5675 5671 5668 5664 5660 5657 5653 5648 5644 5639 5634 5629 5623 5618 5613 5609 5605 5602 5600 5598 5597 5596 5595 5594 5593 5594 5595 5595 5596 5598
5725 5724 5724 5724 5725 5725 5725 5724 5724 5723 5722 5722 5721 5720 5719 5717 5716 5714 5712 5710 5708 5706 5704 5701 5699 5696 5693 5690 5688 5684 5681 5678 5675 5671 5668 5664 5660 5656 5652 5648 5644 5640 5635 5630 5625 5619 5614 5610 5606 5603 5601 5598 5596 5595 5594 5592 5591 5591 5591 5591 5592 5592 5593
5722 5722 5722 5722 5722 5722 5721 5721 5720 5720 5719 5719 5718 5716 5715 5714 5712 5711 5709 5707 5705 5703 5700 5698 5695 5692 5690 5687 5684 5681 5678 5675 5672 5668 5665 5661 5657 5653 5649 5645 5641 5636 5632 5627 5622 5617 5612 5608 5605 5602 5600 5598 5595 5594 5592 5590 5590 5589 5588 5588 5589 5589 5590
5720 5720 5720 5719 5719 5719 5718 5718 5718 5717 5716 5716 5715 5713 5712 5710 5709 5708 5706 5704 5702 5699 5697 5694 5691 5689 5686 5683 5681 5678 5675 5672 5669 5665 5662 5658 5654 5651 5647 5643 5639 5635 5630 5626 5621 5615 5610 5606 5603 5601 5599 5597 5595 5593 5591 5589 5588 5587 5586 5585 5586 5586 5587
5718 5717 5717 5717 5716 5716 5716 5715 5715 5715 5714 5713 5711 5710 5709 5707 5706 5705 5703 5700 5698 5696 5693 5691 5688 5686 5683 5681 5678 5675 5672 5669 5666 5663 5660 5656 5652 5649 5645 5641 5637 5633 5629 5625 5620 5615 5610 5606 5602 5600 5598 5596 5594 5592 5590 5589 5587 5585 5584 5583 5583 5584 5584